Tracking 30072 objects as of 14-Jan-2025
HD Live streaming from Space Station
objects crossing your sky now

STARLINK-2686

Track STARLINK-2686 now!
10-day predictions
STARLINK-2686 is classified as:


NORAD ID: 48464
Int'l Code: 2021-040AN
Perigee: 553.4 km
Apogee: 555.3 km
Inclination: 53.1 °
Period: 95.6 minutes
Semi major axis: 6925 km
RCS: Unknown
Launch date: May 9, 2021
Source: United States (US)
Launch site: AIR FORCE EASTERN TEST RANGE (AFETR)
Your satellite tracking list
Your tracking list is empty




NASA's NSSDC Master Catalog

Two Line Element Set (TLE):
1 48464U 21040AN  25013.46135152  .00010076  00000-0  69429-3 0  9998
2 48464  53.0536 278.0966 0001332  99.6731 260.4408 15.06403245203157
Source of the keplerian elements: AFSPC